Location: Vanderbilt Beach
(26.2700°N, 81.7900°W)
Time: 09:02:07
(UTC-04:00)

N. Korean satellite - Pass Details

Date: 26 June 2021
Orbit: 451 x 497 km, 97.2° (Epoch: 26 July)

Event Time Altitude Azimuth Distance (km) Brightness Sun altitude
Rises 05:39:47 0° 40° (NE) 2,575 11.9 -11.9°
Reaches altitude 10° 05:43:06 10° 73° (ENE) 1,694 10.7 -11.3°
Maximum altitude 05:44:29 12° 95° (E) 1,585 10.0 -11.0°
Drops below altitude 10° 05:45:51 10° 117° (ESE) 1,693 9.7 -10.7°
Sets 05:49:09 0° 151° (SSE) 2,572 10.2 -10.1°
